• Em Portugal
  • Lista de países
  • Para 7 dias
  • Temperatura da água
  • Mapas de satélite
  • Mapa do tempo
  • Widgets de tempo
  • user-avatar
    Iniciar Sessão

    Previsão horária em Curitiba

    Hoje, 26 Maio, Sábado

    Tempo Temperatura Precipitação Vento Pressão Humidade
    00:00 +13°C° 0,1 mm 0 m/s 686 mmHg 97%
    01:00 +13°C° 0 mm 0 m/s 686 mmHg 97%
    02:00 +12°C° 0 mm 0 m/s 686 mmHg 97%
    03:00 +12°C° 0 mm 0 m/s 685 mmHg 98%
    04:00 +12°C° 0 mm 0 m/s 685 mmHg 98%
    05:00 +12°C° 0 mm 0 m/s 685 mmHg 98%
    06:00 +12°C° 0 mm 0 m/s 685 mmHg 98%
    07:00 +12°C° 0 mm 0 m/s 685 mmHg 96%
    08:00 +13°C° 0 mm 0 m/s 686 mmHg 95%
    09:00 +15°C° 0 mm 1 m/s 686 mmHg 93%
    10:00 +16°C° 0 mm 1 m/s 686 mmHg 87%
    11:00 +18°C° 0 mm 1 m/s 686 mmHg 82%
    12:00 +19°C° 0 mm 1 m/s 686 mmHg 77%
    13:00 +19°C° 0,1 mm 1 m/s 686 mmHg 76%
    14:00 +19°C° 0,1 mm 1 m/s 686 mmHg 75%
    15:00 +20°C° 0,1 mm 1 m/s 685 mmHg 75%
    16:00 +18°C° 0,2 mm 1 m/s 685 mmHg 81%
    17:00 +16°C° 0,2 mm 1 m/s 685 mmHg 88%
    18:00 +15°C° 0,2 mm 1 m/s 685 mmHg 95%
    19:00 +14°C° 0 mm 1 m/s 685 mmHg 96%
    20:00 +14°C° 0 mm 1 m/s 685 mmHg 97%
    21:00 +14°C° 0 mm 1 m/s 686 mmHg 98%
    22:00 +14°C° 0 mm 1 m/s 686 mmHg 99%
    23:00 +13°C° 0 mm 1 m/s 686 mmHg 99%

    Amanhã, 27 Maio, Domingo

    Tempo Temperatura Precipitação Vento Pressão Humidade
    00:00 +12°C° 0 mm 0 m/s 686 mmHg 99%
    01:00 +12°C° 0 mm 0 m/s 686 mmHg 98%
    02:00 +12°C° 0 mm 0 m/s 686 mmHg 98%
    03:00 +12°C° 0 mm 0 m/s 686 mmHg 98%
    04:00 +12°C° 0 mm 0 m/s 686 mmHg 97%
    05:00 +12°C° 0 mm 0 m/s 686 mmHg 97%
    06:00 +12°C° 0 mm 0 m/s 686 mmHg 96%
    07:00 +13°C° 0 mm 0 m/s 687 mmHg 93%
    08:00 +14°C° 0 mm 0 m/s 687 mmHg 90%
    09:00 +14°C° 0 mm 0 m/s 688 mmHg 88%
    10:00 +16°C° 0 mm 0 m/s 688 mmHg 78%
    11:00 +20°C° 0 mm 1 m/s 688 mmHg 68%
    12:00 +22°C° 0 mm 1 m/s 689 mmHg 58%
    13:00 +23°C° 0 mm 1 m/s 688 mmHg 56%
    14:00 +23°C° 0 mm 1 m/s 687 mmHg 55%
    15:00 +23°C° 0 mm 1 m/s 687 mmHg 54%
    16:00 +21°C° 0 mm 1 m/s 687 mmHg 65%
    17:00 +19°C° 0 mm 1 m/s 686 mmHg 75%
    18:00 +16°C° 0 mm 1 m/s 686 mmHg 86%
    19:00 +15°C° 0 mm 1 m/s 686 mmHg 89%
    20:00 +15°C° 0 mm 1 m/s 687 mmHg 93%
    21:00 +14°C° 0 mm 1 m/s 687 mmHg 96%
    22:00 +14°C° 0 mm 1 m/s 687 mmHg 97%
    23:00 +14°C° 0 mm 1 m/s 687 mmHg 97%

    Depois de amanhã, 28 Maio, Segunda-feira

    Tempo Temperatura Precipitação Vento Pressão Humidade
    00:00 +14°C° 0 mm 1 m/s 687 mmHg 98%
    01:00 +14°C° 0 mm 1 m/s 687 mmHg 98%
    02:00 +14°C° 0 mm 1 m/s 687 mmHg 97%
    03:00 +12°C° 0 mm 0 m/s 686 mmHg 97%
    04:00 +12°C° 0 mm 0 m/s 686 mmHg 97%
    05:00 +12°C° 0 mm 0 m/s 686 mmHg 97%
    06:00 +11°C° 0 mm 0 m/s 686 mmHg 97%
    07:00 +12°C° 0 mm 0 m/s 687 mmHg 93%
    08:00 +14°C° 0 mm 1 m/s 687 mmHg 89%
    09:00 +15°C° 0 mm 1 m/s 688 mmHg 86%
    10:00 +16°C° 0 mm 1 m/s 688 mmHg 78%
    11:00 +19°C° 0 mm 1 m/s 689 mmHg 70%
    12:00 +19°C° 0 mm 2 m/s 689 mmHg 63%
    13:00 +20°C° 0 mm 2 m/s 688 mmHg 61%
    14:00 +20°C° 0 mm 2 m/s 688 mmHg 60%
    15:00 +20°C° 0 mm 2 m/s 687 mmHg 58%
    16:00 +20°C° 0 mm 1 m/s 687 mmHg 68%
    17:00 +18°C° 0 mm 1 m/s 686 mmHg 79%
    18:00 +15°C° 0 mm 1 m/s 686 mmHg 89%
    19:00 +14°C° 0 mm 1 m/s 686 mmHg 92%
    20:00 +14°C° 0 mm 1 m/s 687 mmHg 95%
    21:00 +13°C° 0 mm 1 m/s 687 mmHg 98%
    22:00 +14°C° 0 mm 1 m/s 687 mmHg 97%
    23:00 +14°C° 0 mm 1 m/s 687 mmHg 96%

    29 Maio, Terça-feira

    Tempo Temperatura Precipitação Vento Pressão Humidade
    00:00 +14°C° 0 mm 1 m/s 687 mmHg 95%
    01:00 +13°C° 0 mm 1 m/s 687 mmHg 95%
    02:00 +13°C° 0 mm 1 m/s 687 mmHg 95%
    03:00 +12°C° 0 mm 1 m/s 686 mmHg 95%
    04:00 +12°C° 0 mm 1 m/s 686 mmHg 96%
    05:00 +12°C° 0 mm 1 m/s 686 mmHg 97%
    06:00 +11°C° 0 mm 0 m/s 686 mmHg 98%
    07:00 +11°C° 0 mm 0 m/s 686 mmHg 95%
    08:00 +13°C° 0 mm 1 m/s 687 mmHg 91%
    09:00 +14°C° 0 mm 1 m/s 687 mmHg 88%
    10:00 +16°C° 0 mm 1 m/s 688 mmHg 76%
    11:00 +19°C° 0 mm 1 m/s 688 mmHg 65%
    12:00 +22°C° 0 mm 1 m/s 688 mmHg 54%
    13:00 +22°C° 0 mm 1 m/s 688 mmHg 52%
    14:00 +22°C° 0 mm 1 m/s 687 mmHg 51%
    15:00 +23°C° 0 mm 1 m/s 686 mmHg 49%
    16:00 +21°C° 0 mm 1 m/s 686 mmHg 59%
    17:00 +18°C° 0 mm 1 m/s 686 mmHg 70%
    18:00 +15°C° 0 mm 1 m/s 685 mmHg 81%
    19:00 +15°C° 0 mm 1 m/s 685 mmHg 85%
    20:00 +14°C° 0 mm 1 m/s 686 mmHg 90%
    21:00 +13°C° 0 mm 1 m/s 686 mmHg 94%
    22:00 +12°C° 0 mm 0 m/s 686 mmHg 95%
    23:00 +12°C° 0 mm 0 m/s 686 mmHg 97%

    30 Maio, Quarta-feira

    Tempo Temperatura Precipitação Vento Pressão Humidade
    00:00 +12°C° 0 mm 0 m/s 686 mmHg 98%
    01:00 +11°C° 0 mm 0 m/s 685 mmHg 98%
    02:00 +11°C° 0 mm 0 m/s 685 mmHg 98%
    03:00 +11°C° 0 mm 0 m/s 685 mmHg 98%
    04:00 +11°C° 0 mm 0 m/s 685 mmHg 98%
    05:00 +11°C° 0 mm 0 m/s 685 mmHg 98%
    06:00 +11°C° 0 mm 0 m/s 685 mmHg 98%
    07:00 +12°C° 0 mm 0 m/s 685 mmHg 91%
    08:00 +13°C° 0 mm 0 m/s 686 mmHg 85%
    09:00 +14°C° 0 mm 0 m/s 687 mmHg 78%
    10:00 +19°C° 0 mm 1 m/s 687 mmHg 66%
    11:00 +21°C° 0 mm 1 m/s 687 mmHg 53%
    12:00 +23°C° 0 mm 1 m/s 687 mmHg 40%
    13:00 +23°C° 0 mm 1 m/s 686 mmHg 39%
    14:00 +23°C° 0 mm 1 m/s 685 mmHg 38%
    15:00 +24°C° 0 mm 1 m/s 685 mmHg 37%
    16:00 +21°C° 0 mm 1 m/s 684 mmHg 47%
    17:00 +17°C° 0 mm 0 m/s 684 mmHg 57%
    18:00 +14°C° 0 mm 0 m/s 683 mmHg 68%
    19:00 +13°C° 0 mm 0 m/s 683 mmHg 70%
    20:00 +13°C° 0 mm 0 m/s 684 mmHg 72%
    21:00 +12°C° 0 mm 0 m/s 684 mmHg 74%
    22:00 +12°C° 0 mm 0 m/s 684 mmHg 75%
    23:00 +12°C° 0 mm 0 m/s 683 mmHg 76%

    31 Maio, Quinta-feira

    Tempo Temperatura Precipitação Vento Pressão Humidade
    00:00 +11°C° 0 mm 0 m/s 683 mmHg 77%
    01:00 +11°C° 0 mm 0 m/s 683 mmHg 78%
    02:00 +11°C° 0 mm 0 m/s 683 mmHg 79%
    03:00 +10°C° 0 mm 0 m/s 682 mmHg 80%
    04:00 +10°C° 0 mm 0 m/s 682 mmHg 81%
    05:00 +11°C° 0 mm 1 m/s 682 mmHg 83%
    06:00 +11°C° 0 mm 1 m/s 682 mmHg 84%
    07:00 +13°C° 0 mm 1 m/s 683 mmHg 78%
    08:00 +14°C° 0 mm 1 m/s 683 mmHg 72%
    09:00 +16°C° 0 mm 1 m/s 684 mmHg 66%
    10:00 +19°C° 0 mm 1 m/s 684 mmHg 59%
    11:00 +21°C° 0 mm 1 m/s 684 mmHg 52%
    12:00 +23°C° 0 mm 1 m/s 684 mmHg 44%
    13:00 +23°C° 0 mm 1 m/s 683 mmHg 44%
    14:00 +24°C° 0 mm 1 m/s 683 mmHg 44%
    15:00 +24°C° 0 mm 1 m/s 682 mmHg 44%
    16:00 +22°C° 0 mm 1 m/s 682 mmHg 54%
    17:00 +19°C° 0 mm 1 m/s 681 mmHg 64%
    18:00 +15°C° 0 mm 0 m/s 681 mmHg 75%
    19:00 +15°C° 0 mm 0 m/s 681 mmHg 77%
    20:00 +15°C° 0 mm 1 m/s 681 mmHg 79%
    21:00 +14°C° 0 mm 1 m/s 682 mmHg 81%
    22:00 +14°C° 0 mm 1 m/s 681 mmHg 82%
    23:00 +14°C° 0 mm 1 m/s 681 mmHg 82%
    Mostrar mais